Wind_Speed
20 20 18 18 17 16 15 14 15 13 13 12 11 12 12 11 10 10 10 10 10 9 9 8 7 7 7 7 7 6 7 4 5 8 11 13 15 14 18 19 21 23 30 26 28 30 29
23 22 22 20 19 18 18 17 15 15 15 14 14 13 13 12 12 11 11 11 10 10 9 9 8 8 8 9 6 8 7 5 6 9 10 12 15 14 17 22 25 26 30 31 28 27 28
24 24 23 22 22 20 19 19 17 17 16 16 16 16 14 14 13 12 11 11 11 10 9 8 8 8 8 9 7 8 8 6 6 9 11 13 15 16 21 27 23 26 30 28 28 27 25
23 24 24 23 22 22 20 19 20 19 18 17 17 17 17 15 14 14 12 12 11 11 10 9 9 7 8 7 6 5 6 7 8 12 13 14 18 17 25 24 31 33 33 30 26 22 22
22 22 23 23 23 22 22 21 20 21 19 19 18 18 18 16 16 15 13 12 12 12 11 10 9 7 8 7 6 5 6 6 8 12 14 16 20 21 27 25 34 22 21 24 23 21 19
23 23 21 22 23 23 23 23 21 21 20 19 19 18 18 18 17 16 14 13 12 12 12 11 9 7 10 9 6 6 6 7 9 13 18 19 21 25 29 35 24 22 24 27 21 21 21
23 23 22 21 22 21 24 23 22 21 20 21 20 19 18 18 17 16 15 14 13 13 13 13 5 12 6 7 7 7 9 9 12 16 19 20 21 25 34 34 26 29 28 31 22 21 17
24 24 24 24 22 22 21 24 24 22 22 21 21 20 19 18 18 17 16 15 14 12 9 13 14 8 10 8 10 10 13 13 13 16 17 19 19 25 33 32 18 23 27 25 23 21 14
26 25 25 24 25 26 23 22 23 25 22 22 22 20 19 18 18 18 17 15 14 13 13 13 13 15 11 11 13 14 16 14 15 14 15 17 17 21 30 28 21 23 24 27 23 18 14
26 26 26 26 26 25 26 24 25 23 24 23 23 21 20 18 18 18 17 15 13 10 7 9 15 17 18 13 16 18 17 17 19 16 15 10 16 16 18 24 19 23 19 20 18 18 8
25 25 25 25 26 26 25 24 25 24 23 24 23 22 20 19 18 18 16 15 12 9 2 8 15 16 20 18 14 23 20 18 17 20 11 12 17 18 21 23 22 19 16 12 16 12 10
25 24 24 25 26 25 25 25 24 24 23 23 23 22 21 19 19 19 16 16 14 8 6 9 14 18 22 24 19 26 25 21 17 15 10 19 20 19 21 21 17 18 18 13 9 8 3
24 24 24 24 23 25 25 24 24 23 23 23 23 23 22 21 20 19 18 18 11 8 8 10 14 18 21 25 22 25 30 27 20 18 18 18 19 16 20 20 15 21 21 6 3 3 2
25 24 24 24 24 23 24 23 23 23 24 25 22 23 23 23 21 20 21 23 12 8 15 11 15 17 21 22 22 26 29 30 24 20 25 19 11 19 19 22 16 24 19 7 5 4 3
26 25 23 24 23 23 22 22 23 25 26 24 23 22 22 24 23 22 25 27 14 12 21 14 15 20 21 23 20 27 31 31 27 24 11 15 8 25 20 23 15 24 18 9 7 5 3
26 24 23 23 22 22 22 22 22 24 25 23 20 19 20 24 25 26 30 28 18 13 14 21 19 18 23 29 22 27 30 28 31 25 20 11 10 20 22 21 18 18 24 9 6 6 4
27 25 23 22 22 20 21 20 21 22 24 21 15 15 16 21 25 28 34 33 26 15 14 19 21 17 15 26 27 29 21 16 33 29 23 15 10 18 22 20 25 19 23 11 10 5 3
27 26 22 20 20 19 20 19 17 20 22 21 18 16 13 18 26 33 31 29 31 29 16 17 18 17 17 21 28 26 24 22 24 29 28 21 11 17 19 14 19 22 17 24 9 8 7
27 25 21 17 16 16 15 16 13 16 18 27 23 18 16 17 26 33 33 33 33 32 27 17 17 19 15 14 15 28 23 23 17 32 29 26 10 12 8 12 19 23 26 24 21 9 11
26 22 18 16 13 13 13 15 11 12 15 27 27 21 22 23 25 26 32 30 32 33 29 26 17 16 18 18 20 21 21 24 19 30 23 26 16 13 14 7 17 26 29 27 23 15 12
24 17 13 14 12 11 11 15 12 10 12 26 23 18 25 16 30 24 26 20 30 29 32 29 26 17 17 18 22 18 26 23 27 23 30 22 20 21 12 7 7 10 18 28 31 27 15
17 13 14 15 14 11 13 13 14 11 13 24 24 29 18 23 23 15 26 29 25 23 27 31 29 23 14 14 19 24 20 29 28 29 27 28 15 21 20 16 12 12 11 13 21 29 31
18 15 15 15 16 16 15 14 14 13 15 23 22 19 28 13 27 28 28 25 23 24 19 26 24 30 24 16 13 16 24 21 23 25 26 26 22 15 9 16 14 13 26 23 21 23 24
17 18 18 16 17 17 20 17 16 16 15 23 20 26 26 23 14 23 29 25 19 20 23 8 19 24 30 20 21 15 13 25 24 22 25 27 26 18 9 15 4 14 14 13 17 22 25
19 18 18 18 18 17 19 21 20 17 15 14 26 20 21 26 23 14 24 24 21 21 22 21 17 15 21 28 23 16 16 15 25 25 24 25 27 15 11 18 7 12 17 15 13 13 14
21 22 22 21 20 18 19 21 22 20 18 15 13 20 25 18 24 24 9 23 19 19 16 19 22 22 17 23 21 20 16 13 13 14 25 25 27 22 15 7 8 10 17 20 13 22 11
23 25 25 23 20 18 19 18 20 21 17 18 14 13 16 24 22 23 26 11 18 20 19 16 17 26 20 25 25 22 27 21 18 24 27 27 28 28 22 11 9 12 8 12 14 10 10
25 24 25 22 20 18 18 19 19 18 18 17 18 15 15 16 19 23 26 26 18 25 21 19 14 24 22 25 21 21 19 29 25 26 35 33 25 23 22 18 13 13 19 19 13 10 9
22 25 24 22 19 18 17 17 18 19 16 16 18 20 18 16 10 12 24 25 29 21 21 27 22 12 21 18 25 17 21 27 30 25 31 33 34 32 23 24 12 14 16 16 17 18 16
Wind_Direction
280 281 279 279 280 278 273 269 267 260 259 255 243 238 238 238 239 237 240 249 256 258 257 253 248 241 242 244 238 255 273 264 218 205 205 205 205 191 184 182 181 185 165 161 160 171 179
281 280 279 278 276 275 274 268 264 263 257 254 249 242 236 237 242 244 248 251 251 253 255 257 251 244 245 239 253 261 269 254 217 199 199 194 190 179 176 176 178 179 165 158 152 167 183
279 278 276 274 275 274 272 271 266 259 258 255 250 247 242 242 243 248 250 257 259 254 251 252 251 247 239 244 250 238 247 230 215 196 189 188 177 172 172 164 174 172 166 161 160 161 163
284 281 275 273 271 273 270 269 266 262 258 254 251 249 245 242 244 247 251 255 256 256 253 250 249 243 243 242 238 224 232 217 198 187 179 177 171 177 176 168 162 161 161 157 165 168 168
287 283 277 271 269 265 267 265 263 261 258 256 253 250 249 246 246 248 251 252 250 252 250 246 249 243 241 230 229 221 217 201 195 176 167 164 170 174 176 173 160 160 153 164 159 169 181
281 282 283 280 268 265 263 263 262 261 259 256 254 253 250 249 247 249 251 250 247 244 244 243 242 237 234 223 216 210 202 184 176 168 163 162 171 172 176 170 162 171 164 161 164 173 183
277 276 277 279 281 272 264 261 259 257 259 256 253 250 249 248 248 246 249 251 249 247 245 239 224 227 248 219 207 187 162 153 163 167 168 169 170 179 181 183 191 179 176 172 161 161 172
278 276 276 273 270 271 268 262 257 256 254 253 252 251 249 246 244 244 244 247 247 252 250 243 234 223 227 212 202 174 160 157 157 167 173 169 183 183 181 181 190 183 179 166 153 156 162
284 281 277 273 271 270 269 266 262 256 253 251 251 246 246 246 244 241 240 237 241 246 252 248 238 218 213 208 199 180 173 167 160 162 168 175 180 189 189 193 190 182 195 184 184 164 156
288 285 279 276 272 268 270 272 269 262 251 249 247 247 243 238 236 238 241 234 233 237 255 247 228 211 211 204 198 186 181 175 172 172 158 164 166 179 176 195 193 183 182 183 176 168 164
289 286 284 281 277 273 269 265 265 268 260 249 246 244 240 235 233 230 231 228 222 212 339 220 208 201 200 196 196 191 183 185 181 165 170 157 151 155 165 165 171 165 161 170 167 181 177
292 288 285 282 280 277 274 269 264 262 259 253 243 242 239 234 228 226 218 212 205 197 248 203 194 198 195 193 192 189 187 192 190 186 170 160 159 166 179 173 179 178 155 152 159 163 211
295 292 288 283 279 277 274 269 265 259 256 252 243 238 235 229 224 219 208 201 192 209 205 212 203 198 196 193 187 189 192 191 184 167 165 163 170 175 191 175 167 169 157 129 161 190 222
298 294 292 288 285 278 273 270 261 259 255 253 246 233 230 230 220 214 203 192 208 209 198 196 200 195 196 194 194 189 192 195 197 191 169 171 179 185 187 189 179 177 181 169 170 184 152
299 296 293 291 288 285 277 270 264 256 253 251 252 237 223 222 217 212 202 199 212 205 204 198 181 190 194 195 197 191 197 201 196 197 176 171 168 184 187 192 181 184 196 177 118 129 169
300 296 294 290 286 283 278 271 263 259 254 258 251 238 220 219 214 210 208 208 209 201 196 202 198 202 201 196 196 194 195 205 202 200 201 184 141 183 184 187 193 193 196 180 183 153 212
300 299 295 293 293 286 280 272 263 255 251 245 238 253 223 216 212 211 214 216 210 205 199 202 203 206 211 203 204 198 202 197 204 203 206 208 187 176 185 199 198 184 189 190 182 180 175
296 294 293 288 289 291 287 278 269 253 243 225 239 241 229 216 211 213 218 217 215 214 207 209 211 207 214 211 209 207 202 203 203 204 198 189 183 161 189 206 207 218 215 202 189 195 192
292 288 287 287 281 282 292 291 280 255 237 218 226 230 232 224 219 219 225 226 221 221 219 218 215 212 208 213 209 212 211 203 200 200 203 193 183 132 181 214 208 212 213 213 214 188 189
291 286 281 282 282 293 283 291 289 260 239 212 222 228 233 237 233 225 228 232 228 226 224 222 216 213 209 210 208 208 208 201 194 195 194 205 207 202 188 187 202 211 214 212 214 214 209
287 284 278 292 267 284 272 278 291 270 218 202 213 218 228 231 235 235 231 232 233 229 230 226 220 210 208 213 210 215 207 205 200 193 204 199 210 210 207 208 199 218 228 221 220 223 217
289 291 265 247 245 255 259 263 279 272 222 206 211 216 214 228 237 237 233 233 230 224 228 229 223 213 205 208 215 220 215 212 202 197 198 204 206 214 220 228 229 232 228 222 234 238 240
273 272 252 248 246 232 248 254 265 271 236 212 212 205 217 235 239 235 237 240 239 229 232 233 228 224 218 214 204 210 215 218 220 220 210 205 207 197 202 218 227 252 239 237 242 243 238
283 262 246 244 257 244 236 245 249 261 255 225 215 216 225 226 229 234 238 239 238 239 242 229 214 222 223 218 218 206 203 210 214 220 219 214 208 201 177 171 197 238 234 232 243 250 248
275 264 244 244 257 249 239 239 241 246 255 250 227 223 232 238 227 228 232 235 233 236 238 228 213 213 209 216 224 226 223 215 209 209 210 212 212 186 184 195 250 223 227 228 243 252 246
269 262 251 250 253 252 240 236 234 237 245 248 249 240 236 244 240 229 228 218 221 228 232 236 212 215 204 209 208 213 206 204 203 201 204 206 209 207 192 180 204 241 238 237 242 267 252
265 262 259 262 260 256 244 243 239 237 232 245 251 257 254 245 244 242 233 222 219 234 241 235 217 204 200 208 212 216 217 216 208 198 194 198 204 209 207 207 230 210 183 193 199 238 237
259 260 259 260 262 258 252 249 238 232 234 234 244 250 256 263 249 249 244 230 215 212 222 227 220 219 208 216 215 212 219 215 215 216 205 200 192 203 210 214 235 227 224 222 234 236 230
263 254 254 256 255 254 250 242 240 243 236 234 234 240 246 253 266 261 239 235 228 217 209 226 219 218 218 218 220 214 220 214 215 210 211 209 212 213 223 228 228 235 244 241 239 244 247
Height
3096 3096 3095 3095 3095 3095 3095 3094 3095 3094 3095 3095 3095 3096 3097 3098 3100 3101 3101 3102 3102 3102 3102 3102 3102 3103 3104 3105 3104 3104 3105 3105 3106 3107 3109 3112 3115 3118 3122 3125 3129 3133 3135 3140 3144 3147 3149
3091 3091 3092 3091 3091 3091 3092 3091 3090 3091 3091 3092 3093 3094 3095 3096 3097 3098 3099 3100 3100 3100 3100 3100 3101 3101 3102 3104 3102 3102 3102 3103 3104 3105 3107 3110 3113 3117 3121 3124 3128 3130 3133 3138 3143 3147 3150
3086 3086 3086 3087 3087 3088 3087 3088 3088 3087 3088 3089 3090 3091 3092 3093 3094 3095 3096 3096 3097 3097 3098 3099 3099 3099 3100 3101 3100 3100 3100 3101 3102 3103 3106 3109 3113 3117 3119 3122 3127 3129 3133 3138 3143 3145 3148
3081 3080 3080 3080 3082 3082 3083 3083 3084 3084 3084 3084 3086 3087 3089 3089 3091 3091 3092 3093 3094 3095 3096 3096 3097 3097 3097 3098 3098 3098 3098 3099 3101 3102 3106 3109 3113 3115 3118 3123 3127 3129 3135 3137 3142 3145 3148
3075 3075 3074 3074 3075 3076 3077 3079 3079 3080 3080 3081 3082 3083 3085 3086 3088 3089 3090 3090 3091 3092 3094 3094 3095 3095 3096 3096 3096 3096 3097 3098 3099 3101 3104 3108 3113 3115 3118 3122 3127 3132 3134 3138 3142 3144 3147
3070 3069 3069 3069 3069 3070 3071 3072 3074 3075 3075 3077 3078 3079 3081 3083 3084 3085 3087 3088 3088 3090 3091 3092 3092 3095 3094 3094 3094 3094 3095 3097 3099 3101 3104 3108 3112 3114 3118 3120 3125 3130 3134 3137 3139 3145 3147
3065 3064 3063 3063 3064 3064 3065 3066 3068 3069 3070 3071 3073 3074 3076 3078 3080 3082 3084 3085 3088 3088 3088 3090 3090 3091 3091 3092 3093 3094 3095 3096 3098 3101 3103 3107 3112 3113 3115 3120 3123 3126 3129 3133 3138 3142 3147
3058 3059 3058 3058 3057 3058 3059 3059 3061 3062 3064 3065 3067 3070 3071 3073 3075 3078 3079 3081 3083 3086 3085 3086 3087 3088 3089 3090 3092 3093 3096 3099 3099 3100 3103 3108 3110 3113 3117 3121 3124 3127 3130 3134 3139 3142 3145
3053 3053 3053 3052 3052 3052 3053 3054 3054 3056 3058 3059 3062 3064 3067 3069 3071 3074 3075 3077 3079 3080 3082 3083 3083 3085 3087 3090 3090 3092 3096 3098 3100 3101 3103 3106 3110 3113 3117 3121 3124 3127 3129 3131 3135 3140 3144
3047 3048 3047 3046 3046 3046 3048 3049 3049 3050 3051 3053 3056 3060 3061 3064 3069 3069 3072 3074 3075 3077 3079 3079 3078 3081 3084 3086 3090 3092 3094 3098 3098 3101 3104 3107 3108 3111 3115 3120 3124 3126 3130 3132 3134 3138 3141
3042 3040 3041 3041 3040 3040 3040 3041 3043 3044 3046 3047 3050 3054 3056 3059 3062 3065 3069 3071 3073 3076 3077 3074 3073 3075 3078 3084 3086 3089 3093 3096 3099 3099 3103 3105 3108 3111 3114 3117 3121 3124 3129 3133 3134 3136 3138
3035 3034 3034 3033 3034 3033 3034 3035 3036 3037 3039 3041 3044 3048 3051 3054 3057 3061 3064 3067 3072 3077 3070 3068 3068 3070 3074 3078 3082 3085 3090 3095 3098 3101 3102 3103 3107 3111 3114 3117 3120 3123 3128 3133 3135 3136 3138
3029 3028 3028 3027 3026 3027 3027 3028 3030 3030 3032 3034 3037 3041 3046 3049 3052 3056 3059 3064 3070 3066 3065 3064 3065 3067 3071 3074 3078 3082 3085 3089 3093 3098 3100 3104 3107 3109 3112 3116 3120 3122 3126 3133 3137 3136 3135
3024 3022 3021 3021 3020 3020 3021 3022 3023 3024 3026 3027 3030 3035 3039 3044 3047 3051 3055 3060 3058 3056 3058 3059 3062 3065 3068 3072 3076 3078 3082 3085 3090 3092 3097 3100 3107 3107 3108 3112 3114 3119 3122 3123 3125 3129 3132
3018 3017 3015 3014 3014 3014 3015 3016 3016 3018 3019 3022 3025 3028 3034 3036 3042 3046 3050 3050 3049 3051 3054 3056 3059 3063 3065 3068 3072 3075 3079 3082 3085 3089 3093 3096 3099 3103 3106 3109 3115 3116 3119 3122 3123 3127 3129
3013 3012 3011 3010 3009 3008 3009 3010 3011 3011 3014 3017 3019 3023 3028 3031 3036 3039 3043 3042 3045 3048 3050 3053 3055 3058 3059 3063 3067 3070 3074 3078 3081 3086 3089 3092 3097 3101 3104 3108 3111 3112 3117 3121 3121 3125 3126
3007 3005 3004 3004 3003 3002 3003 3003 3005 3006 3009 3012 3016 3019 3022 3026 3030 3033 3032 3035 3041 3045 3048 3051 3053 3054 3057 3059 3063 3065 3068 3072 3077 3081 3086 3089 3092 3100 3103 3103 3104 3108 3110 3114 3116 3118 3117
3001 3000 2999 2998 2998 2997 2997 2998 2999 3000 3003 3008 3011 3015 3019 3020 3025 3023 3026 3031 3038 3042 3045 3047 3049 3052 3055 3057 3059 3063 3064 3069 3071 3077 3081 3086 3089 3094 3098 3100 3102 3105 3106 3108 3109 3114 3114
2996 2994 2993 2993 2993 2993 2993 2993 2994 2995 2998 3002 3006 3010 3014 3016 3016 3017 3022 3027 3032 3037 3041 3044 3046 3049 3051 3054 3057 3059 3062 3066 3068 3072 3077 3082 3086 3092 3099 3100 3098 3098 3100 3103 3105 3107 3109
2988 2988 2988 2988 2988 2989 2990 2990 2989 2990 2993 2997 3002 3005 3009 3010 3011 3015 3019 3023 3026 3032 3036 3041 3043 3045 3048 3050 3053 3054 3059 3062 3066 3070 3074 3078 3080 3082 3083 3083 3087 3091 3093 3098 3102 3103 3103
2982 2982 2982 2983 2984 2986 2986 2987 2987 2987 2989 2992 2995 3000 3002 3004 3006 3011 3016 3017 3021 3025 3030 3035 3039 3042 3044 3047 3050 3052 3055 3059 3063 3066 3070 3074 3076 3079 3081 3082 3084 3086 3089 3092 3094 3097 3099
2976 2976 2977 2977 2979 2982 2983 2984 2984 2984 2985 2987 2991 2995 2997 2999 3002 3006 3009 3011 3016 3021 3025 3029 3034 3039 3041 3044 3047 3049 3052 3055 3057 3061 3064 3068 3071 3075 3078 3080 3082 3084 3086 3088 3092 3093 3094
2969 2970 2971 2973 2974 2976 2979 2980 2980 2980 2981 2982 2985 2988 2991 2995 2996 3001 3002 3007 3013 3018 3020 3023 3028 3033 3037 3041 3043 3045 3048 3052 3055 3058 3060 3064 3067 3071 3075 3077 3080 3082 3079 3082 3085 3086 3089
2963 2964 2965 2967 2969 2971 2973 2975 2976 2976 2977 2979 2981 2984 2986 2989 2992 2995 2998 3004 3008 3012 3015 3020 3022 3026 3031 3036 3039 3042 3043 3046 3050 3053 3056 3058 3063 3067 3069 3074 3077 3071 3073 3076 3078 3081 3082
2958 2958 2960 2962 2964 2966 2967 2969 2971 2973 2973 2975 2977 2980 2981 2983 2987 2990 2993 2998 3003 3007 3009 3013 3018 3021 3026 3029 3034 3037 3040 3042 3043 3046 3050 3054 3057 3061 3065 3068 3068 3066 3068 3071 3073 3075 3076
2953 2953 2954 2956 2957 2959 2962 2964 2966 2968 2970 2972 2974 2975 2978 2980 2983 2987 2990 2994 2997 3002 3005 3007 3013 3017 3020 3024 3028 3029 3032 3035 3038 3040 3044 3049 3053 3057 3059 3062 3064 3062 3063 3068 3070 3068 3070
2947 2947 2948 2950 2952 2954 2957 2959 2961 2963 2966 2969 2971 2973 2974 2975 2978 2982 2987 2990 2994 2997 3000 3004 3007 3010 3015 3018 3021 3023 3026 3029 3031 3032 3038 3043 3047 3050 3053 3055 3056 3058 3059 3062 3067 3069 3066
2940 2941 2942 2945 2947 2949 2951 2954 2956 2959 2962 2964 2968 2969 2971 2971 2974 2977 2982 2988 2990 2992 2995 3000 3005 3005 3009 3013 3015 3018 3019 3022 3024 3027 3029 3033 3040 3044 3048 3051 3052 3054 3056 3060 3062 3061 3063
2934 2935 2937 2939 2942 2944 2946 2949 2952 2954 2957 2959 2963 2965 2966 2968 2972 2972 2976 2981 2987 2986 2990 2993 2998 3001 3005 3007 3009 3011 3012 3014 3017 3020 3023 3029 3030 3036 3041 3041 3046 3048 3051 3054 3056 3058 3059